GW5761 Weather Reports


time (UTC)temp
F
wind
direction
speed
knots
gust
knots
rain 1hr
in
rain 24hr
in
rain mn
in
humidity
%
barometer
mb
20260502210223 77 357 3.5 6.1 0.00 0.00 0.00 35 1020.2
20260502205720 78 266 3.5 6.1 0.00 0.00 0.00 35 1020.3
20260502205216 79 2 1.7 7.8 0.00 0.00 0.00 34 1020.3
20260502204713 79 352 1.7 4.3 0.00 0.00 0.00 34 1020.4
20260502204211 79 273 1.7 3.5 0.00 0.00 0.00 34 1020.4
20260502203708 79 198 0.0 3.5 0.00 0.00 0.00 35 1020.5
20260502203206 76 93 0.9 4.3 0.00 0.00 0.00 37 1020.7
20260502202700 77 241 3.5 4.3 0.00 0.00 0.00 36 1020.6
20260502202159 79 273 3.5 7.0 0.00 0.00 0.00 35 1020.6
20260502201655 78 274 0.9 1.7 0.00 0.00 0.00 35 1020.8
20260502201152 77 57 2.6 4.3 0.00 0.00 0.00 37 1020.9
20260502200648 79 292 2.6 6.1 0.00 0.00 0.00 35 1020.9
20260502200144 78 240 0.9 3.5 0.00 0.00 0.00 35 1021.0
20260502195643 77 81 1.7 4.3 0.00 0.00 0.00 37 1021.1
20260502195138 75 111 0.0 5.2 0.00 0.00 0.00 37 1021.2
20260502194635 77 216 1.7 10.4 0.00 0.00 0.00 36 1021.2
20260502194132 77 273 4.3 5.2 0.00 0.00 0.00 35 1021.2
20260502193628 78 290 2.6 5.2 0.00 0.00 0.00 34 1021.2
20260502193126 77 297 3.5 10.4 0.00 0.00 0.00 34 1021.4
20260502192621 77 228 1.7 13.9 0.00 0.00 0.00 37 1021.4
20260502192119 75 271 1.7 3.5 0.00 0.00 0.00 37 1021.4
20260502191615 77 284 5.2 8.7 0.00 0.00 0.00 35 1021.5
20260502191113 78 354 2.6 4.3 0.00 0.00 0.00 35 1021.6
20260502190610 78 282 1.7 7.8 0.00 0.00 0.00 34 1021.7
20260502190108 77 263 1.7 3.5 0.00 0.00 0.00 36 1021.7
20260502185602 77 23 2.6 6.1 0.00 0.00 0.00 36 1021.6
20260502185059 77 315 6.1 7.8 0.00 0.00 0.00 35 1021.6
20260502184555 77 256 1.7 6.1 0.00 0.00 0.00 34 1021.7
20260502184051 78 267 2.6 4.3 0.00 0.00 0.00 35 1021.9
20260502183548 77 251 1.7 4.3 0.00 0.00 0.00 36 1021.8
20260502183044 76 258 3.5 4.3 0.00 0.00 0.00 37 1021.9
20260502182539 76 273 1.7 4.3 0.00 0.00 0.00 36 1021.9
20260502182035 76 207 3.5 4.3 0.00 0.00 0.00 37 1022.2
20260502181533 75 96 1.7 7.8 0.00 0.00 0.00 38 1022.3
20260502181032 75 264 2.6 6.1 0.00 0.00 0.00 39 1022.2
20260502180529 74 225 1.7 7.8 0.00 0.00 0.00 40 1022.1
20260502170453 73 262 4.3 4.3 0.00 0.00 0.00 43 1022.6
20260502163937 73 248 2.6 4.3 0.00 0.00 0.00 44 1023.0
20260502163433 73 2 2.6 4.3 0.00 0.00 0.00 42 1023.0
20260502162931 73 66 2.6 3.5 0.00 0.00 0.00 44 1022.8
20260502162427 72 242 0.0 2.6 0.00 0.00 0.00 48 1022.8
20260502161924 73 246 0.9 5.2 0.00 0.00 0.00 48 1022.9
20260502161420 73 82 1.7 3.5 0.00 0.00 0.00 49 1023.1
20260502160919 72 321 0.0 3.5 0.00 0.00 0.00 50 1022.8
20260502160416 70 82 1.7 6.1 0.00 0.00 0.00 52 1022.9
20260502151855 71 295 0.9 3.5 0.00 0.00 0.00 52 1022.3
20260502151351 69 350 0.0 3.5 0.00 0.00 0.00 55 1022.1
20260502150849 70 225 0.0 3.5 0.00 0.00 0.00 55 1022.5
20260502150345 68 232 0.0 1.7 0.00 0.00 0.00 60 1022.4
20260502130733 59 356 3.5 4.3 0.00 0.00 0.00 81 1022.1
20260502130231 59 123 0.9 3.5 0.00 0.00 0.00 82 1021.8
20260502123717 57 61 0.9 2.6 0.00 0.00 0.00 89 1021.4
20260502123213 56 107 0.9 1.7 0.00 0.00 0.00 91 1021.3
20260502122710 56 41 1.7 2.6 0.00 0.00 0.00 91 1021.1
20260502122206 55 157 1.7 1.7 0.00 0.00 0.00 93 1021.1
20260502121705 55 77 1.7 1.7 0.00 0.00 0.00 94 1020.8
20260502121203 54 113 1.7 1.7 0.00 0.00 0.00 94 1020.7
20260502120658 54 56 1.7 1.7 0.00 0.00 0.00 95 1020.5
20260502120155 53 73 0.0 2.6 0.00 0.00 0.00 96 1020.2
20260502115653 53 81 1.7 2.6 0.00 0.00 0.00 96 1020.6
20260502115149 52 32 2.6 2.6 0.00 0.00 0.00 96 1020.1
20260502114645 52 41 1.7 2.6 0.00 0.00 0.00 96 1020.2
20260502114143 52 58 0.9 2.6 0.00 0.00 0.00 96 1020.0
20260502113640 52 37 0.9 3.5 0.00 0.00 0.00 96 1019.9
20260502113138 52 74 1.7 3.5 0.00 0.00 0.00 96 1020.1
20260502112636 52 38 1.7 3.5 0.00 0.00 0.00 95 1019.8
20260502112133 52 62 0.0 1.7 0.00 0.00 0.00 95 1019.9
20260502111631 52 86 0.0 2.6 0.00 0.00 0.00 95 1019.8
20260502111128 52 121 2.6 2.6 0.00 0.00 0.00 95 1019.8
20260502110626 52 128 0.9 3.5 0.00 0.00 0.00 95 1019.7
20260502110123 53 49 1.7 3.5 0.00 0.00 0.00 94 1019.8
20260502105620 53 38 0.9 3.5 0.00 0.00 0.00 94 1019.6
20260502105117 53 100 1.7 1.7 0.00 0.00 0.00 93 1019.8
20260502104614 53 83 0.0 1.7 0.00 0.00 0.00 93 1019.6
20260502104111 53 128 0.9 2.6 0.00 0.00 0.00 93 1019.4
20260502103609 53 52 2.6 2.6 0.00 0.00 0.00 92 1019.5
20260502103107 53 56 1.7 3.5 0.00 0.00 0.00 92 1019.5
20260502102603 53 324 1.7 2.6 0.00 0.00 0.00 92 1019.5
20260502102100 53 35 1.7 1.7 0.00 0.00 0.00 92 1019.5
20260502101558 53 354 1.7 2.6 0.00 0.00 0.00 91 1019.4
20260502101056 53 170 0.9 3.5 0.00 0.00 0.00 91 1019.3
20260502100554 54 11 1.7 3.5 0.00 0.00 0.00 91 1019.3
20260502091529 55 98 1.7 3.5 0.00 0.00 0.00 90 1019.0
20260502091026 55 11 2.6 4.3 0.00 0.00 0.00 90 1019.2
20260502090523 55 81 0.9 3.5 0.00 0.00 0.00 90 1019.1
20260502071418 55 112 0.9 2.6 0.00 0.00 0.00 93 1019.1
20260502070916 55 352 0.9 2.6 0.00 0.00 0.00 93 1019.2
20260502070414 55 68 1.7 2.6 0.00 0.00 0.00 93 1019.2
20260502065912 55 18 1.7 4.3 0.00 0.00 0.00 93 1019.3
20260502065410 55 143 0.9 3.5 0.00 0.00 0.00 94 1019.1
20260502064908 55 105 0.9 2.6 0.00 0.00 0.00 94 1019.3
20260502064405 55 29 2.6 3.5 0.00 0.00 0.00 94 1019.2
20260502063902 55 14 1.7 4.3 0.00 0.00 0.00 94 1019.3
20260502063400 55 83 1.7 3.5 0.00 0.00 0.00 95 1019.1
20260502062857 55 27 1.7 3.5 0.00 0.00 0.00 95 1019.3
20260502062354 55 125 0.9 2.6 0.00 0.00 0.00 95 1019.3
20260502061854 55 11 0.9 3.5 0.00 0.00 0.00 95 1019.2
20260502061351 55 143 0.0 3.5 0.00 0.00 0.00 95 1019.3
20260502060846 55 168 0.9 2.6 0.00 0.00 0.00 95 1019.3
20260502060341 55 8 0.9 3.5 0.00 0.00 0.00 95 1019.4
20260502055839 55 37 0.0 2.6 0.00 0.00 0.00 95 1019.3
20260502055337 55 43 0.9 3.5 0.00 0.00 0.00 95 1019.2
20260502054836 55 197 0.0 2.6 0.00 0.00 0.00 95 1019.2
20260502054333 55 64 1.7 1.7 0.00 0.00 0.00 95 1019.2
20260502053831 55 110 1.7 2.6 0.00 0.00 0.00 95 1019.4
20260502053328 55 255 0.9 2.6 0.00 0.00 0.00 95 1019.4
20260502052825 55 105 0.9 3.5 0.00 0.00 0.00 95 1019.1
20260502052323 55 236 0.9 3.5 0.00 0.00 0.00 95 1019.2
20260502051821 56 136 0.9 2.6 0.00 0.00 0.00 94 1019.3
20260502051320 56 130 0.9 2.6 0.00 0.00 0.00 94 1019.2
20260502050816 56 81 0.0 2.6 0.00 0.00 0.00 94 1019.3
20260502050312 56 164 1.7 1.7 0.00 0.00 0.00 94 1019.1
20260502045809 56 60 1.7 4.3 0.00 0.42 0.42 94 1019.1
20260502045306 56 154 0.9 2.6 0.00 0.42 0.42 94 1018.9
20260502044803 56 120 0.0 3.5 0.00 0.42 0.42 94 1018.9
20260502044259 56 107 1.7 1.7 0.00 0.42 0.42 94 1019.1
20260502043756 56 186 0.9 3.5 0.00 0.42 0.42 94 1019.1
20260502043254 56 149 1.7 2.6 0.00 0.42 0.42 94 1018.9
20260502042753 56 162 0.9 3.5 0.00 0.42 0.42 94 1018.9
20260502042250 56 215 0.9 1.7 0.00 0.42 0.42 94 1018.9
20260502041748 56 188 0.0 1.7 0.00 0.42 0.42 94 1018.9
20260502041245 56 161 0.9 1.7 0.00 0.42 0.42 94 1018.7
20260502040742 56 235 1.7 2.6 0.00 0.42 0.42 95 1018.9
20260502040239 56 106 0.9 1.7 0.00 0.42 0.42 94 1018.8
20260502035735 56 42 2.6 2.6 0.00 0.42 0.42 94 1018.8
20260502035232 56 208 0.0 2.6 0.00 0.42 0.42 94 1018.8
20260502034729 56 85 0.9 0.9 0.00 0.42 0.42 94 1018.7
20260502034227 56 211 0.0 1.7 0.00 0.42 0.42 94 1018.7
20260502033725 56 129 0.0 0.9 0.00 0.42 0.42 94 1018.6
20260502033223 56 130 0.0 1.7 0.00 0.42 0.42 94 1018.5
20260502032719 56 127 0.0 0.9 0.00 0.42 0.42 94 1018.3
20260502032215 56 83 0.9 0.9 0.00 0.42 0.42 93 1018.5
20260502031714 56 113 1.7 3.5 0.00 0.42 0.42 93 1018.4
20260502031211 56 125 2.6 2.6 0.00 0.42 0.42 93 1018.4
20260502030710 56 2 1.7 1.7 0.00 0.42 0.42 93 1018.4
20260502030207 56 207 1.7 3.5 0.00 0.42 0.42 93 1018.5
20260502025704 56 118 1.7 3.5 0.00 0.42 0.42 93 1018.4
20260502025202 56 220 0.9 2.6 0.00 0.42 0.42 93 1018.4
20260502024659 56 88 0.0 3.5 0.00 0.42 0.42 92 1017.9
20260502024158 56 65 1.7 2.6 0.02 0.42 0.42 93 1017.8
20260502023655 56 125 2.6 5.2 0.02 0.42 0.42 93 1018.1
20260502023152 56 134 2.6 5.2 0.00 0.41 0.41 93 1017.9
20260502022649 56 132 1.7 4.3 0.00 0.41 0.41 92 1018.4
20260502022146 56 124 2.6 3.5 0.00 0.41 0.41 92 1018.4
20260502021644 56 145 0.9 0.9 0.00 0.41 0.41 93 1019.1
20260502021140 57 165 0.9 1.7 0.00 0.41 0.41 93 1018.8
20260502020638 57 160 1.7 1.7 0.00 0.41 0.41 93 1018.5
20260502020134 57 117 1.7 2.6 0.00 0.41 0.41 93 1018.2
20260502015633 57 119 1.7 2.6 0.00 0.41 0.41 93 1018.2
20260502015128 57 107 1.7 2.6 0.00 0.41 0.41 92 1018.0
20260502014626 57 87 0.9 1.7 0.00 0.41 0.41 92 1018.2
20260502014123 57 61 1.7 2.6 0.00 0.41 0.41 93 1018.1
20260502013619 57 243 0.0 1.7 0.00 0.41 0.41 93 1017.8
20260502013115 57 122 0.0 3.5 0.00 0.41 0.41 92 1017.6
20260502012613 57 338 1.7 2.6 0.00 0.41 0.41 92 1017.6
20260502012111 57 51 3.5 3.5 0.00 0.41 0.41 92 1017.2
20260502011607 57 347 1.7 3.5 0.00 0.41 0.41 91 1017.1
20260502011103 57 192 0.0 2.6 0.00 0.41 0.41 91 1017.4
20260502010600 57 21 1.7 3.5 0.00 0.41 0.41 91 1017.5
20260502010056 57 59 0.9 1.7 0.00 0.41 0.41 91 1017.7
20260502005554 57 96 1.7 2.6 0.00 0.41 0.41 91 1017.6
20260502005052 57 353 1.7 2.6 0.00 0.41 0.41 90 1017.5
20260502004547 57 35 1.7 2.6 0.00 0.41 0.41 90 1017.3
20260502004044 57 16 1.7 2.6 0.00 0.41 0.41 90 1017.3
20260502003542 58 25 0.9 2.6 0.02 0.41 0.41 89 1017.6
20260502003039 58 53 0.9 1.7 0.02 0.41 0.41 89 1017.6
20260502002535 57 28 1.7 2.6 0.00 0.41 0.41 88 1017.6
20260502002032 58 60 1.7 1.7 0.00 0.41 0.41 88 1017.6
20260502001530 58 77 1.7 2.6 0.00 0.41 0.41 88 1017.2
20260502001027 58 63 1.7 2.6 0.02 0.41 0.41 88 1017.2
20260502000526 58 99 1.7 1.7 0.02 0.41 0.41 89 1017.3
20260502000022 58 108 1.7 3.5 0.00 0.41 0.41 88 1017.3
20260501235518 58 94 2.6 3.5 0.00 0.41 0.41 88 1016.9
20260501235014 58 101 1.7 1.7 0.00 0.41 0.41 88 1016.9
20260501234510 58 84 0.0 1.7 0.00 0.41 0.41 88 1017.2
20260501234009 58 59 0.0 1.7 0.00 0.41 0.41 88 1017.1
20260501233506 58 46 0.9 2.6 0.00 0.41 0.41 88 1017.1
20260501233002 58 32 1.7 3.5 0.00 0.41 0.41 87 1016.8
20260501232459 58 84 0.9 2.6 0.02 0.41 0.41 85 1016.8
20260501231956 58 260 1.7 2.6 0.02 0.41 0.41 84 1016.8
20260501231454 58 125 2.6 6.1 0.00 0.40 0.40 84 1016.9
20260501230952 59 281 0.0 4.3 0.02 0.40 0.40 83 1016.5
20260501230451 59 180 1.7 2.6 0.02 0.40 0.40 81 1016.5
20260501225948 59 149 1.7 1.7 0.00 0.40 0.40 80 1016.9
20260501225445 59 102 3.5 5.2 0.00 0.40 0.40 79 1017.3
20260501224941 59 79 4.3 6.1 0.00 0.40 0.40 78 1016.9
20260501224439 59 92 6.1 9.6 0.00 0.40 0.40 78 1016.6
20260501223936 59 85 2.6 11.3 0.00 0.40 0.40 78 1016.5
20260501223432 60 120 1.7 4.3 0.00 0.40 0.40 77 1016.3
20260501222927 60 98 1.7 5.2 0.00 0.40 0.40 78 1016.4
20260501222425 60 109 5.2 5.2 0.00 0.40 0.40 77 1016.2
20260501221921 60 161 2.6 5.2 0.00 0.40 0.40 76 1015.9
20260501221419 60 110 5.2 8.7 0.00 0.40 0.40 75 1015.7
20260501220916 61 113 4.3 7.0 0.00 0.40 0.40 75 1015.8
20260501220414 60 181 1.7 4.3 0.00 0.40 0.40 75 1015.6
20260501215910 61 157 3.5 5.2 0.00 0.40 0.40 74 1015.4
20260501215407 61 306 1.7 5.2 0.00 0.40 0.40 74 1015.6
20260501214902 61 255 2.6 5.2 0.00 0.40 0.40 73 1015.6
20260501214402 61 105 4.3 5.2 0.00 0.40 0.40 75 1015.6
20260501213858 60 260 1.7 8.7 0.00 0.40 0.40 75 1015.9
20260501213355 60 119 6.1 7.8 0.00 0.40 0.40 76 1015.9
20260501212851 59 181 1.7 3.5 0.00 0.40 0.40 76 1016.2
20260501212348 59 265 2.6 4.3 0.00 0.40 0.40 76 1016.3
20260501211845 59 110 2.6 4.3 0.00 0.40 0.40 78 1016.6
20260501211342 59 120 1.7 4.3 0.00 0.40 0.40 78 1016.5
20260501210839 59 346 2.6 3.5 0.00 0.40 0.40 78 1017.1